Flag for China

Past Weather in 38°55'14.9"N, 121°38'21.0"E, China — Yesterday and Last 2 Weeks

Currently: 19 °F. Passing clouds. (Weather station: Dalian Airport, China). See more current weather

Past Weather in 38°55'14.9"N, 121°38'21.0"E — Graph

°F

38°55'14.9"N, 121°38'21.0"E Temperature Yesterday

Maximum temperature yesterday: 30 °F (at 12:00 am)
Minimum temperature yesterday: 25 °F (at 9:00 pm)
Average temperature yesterday: 28 °F

High & Low Weather Summary for the Past Weeks

 TemperatureHumidityPressure
High48 °F (Feb 18, 10:30 am)100% (Feb 18, 3:00 pm)30.60 "Hg (Feb 18, 3:00 pm)
Low14 °F (Feb 21, 3:30 am)20% (Feb 27, 11:30 am)29.77 "Hg (Feb 18, 3:00 pm)
Average29 °F59%30.34 "Hg
* Reported Feb 15 4:00 am — Mar 1 4:00 am, 38°55'14.9"N, 121°38'21.0"E. Weather by CustomWeather, © 2024

Note: Actual official high and low records may vary slightly from our data, if they occured in-between our weather recording intervals... More about our weather records

38°55'14.9"N, 121°38'21.0"E Weather History for the Previous 24 Hours

Scroll right to see more
 ConditionsComfort  
Time TempWeatherWind HumidityBarometerVisibility
4:00 am
Fri, Mar 1
21 °FPassing clouds.8 mph38%30.48 "HgN/A
3:30 am19 °FPassing clouds.8 mph42%30.51 "HgN/A
3:00 am21 °FPassing clouds.10 mph38%30.51 "HgN/A
2:30 am21 °FPassing clouds.6 mph38%30.51 "HgN/A
2:00 am21 °FPassing clouds.10 mph38%30.51 "HgN/A
1:30 am21 °FPassing clouds.8 mph38%30.51 "HgN/A
1:00 am23 °FPassing clouds.10 mph33%30.51 "HgN/A
12:30 am23 °FPassing clouds.10 mph39%30.51 "HgN/A
12:00 am23 °FPassing clouds.8 mph39%30.51 "HgN/A
11:30 pm
Thu, Feb 29
25 °FPassing clouds.6 mph36%30.51 "HgN/A
11:00 pm25 °FPassing clouds.8 mph36%30.51 "HgN/A
10:30 pm25 °FPassing clouds.8 mph36%30.51 "HgN/A
10:00 pm25 °FPassing clouds.3 mph42%30.51 "HgN/A
9:30 pm25 °FPassing clouds.3 mph39%30.48 "HgN/A
9:00 pm25 °FPassing clouds.6 mph39%30.48 "HgN/A
8:30 pm27 °FPassing clouds.3 mph39%30.48 "HgN/A
8:00 pm27 °FPassing clouds.6 mph36%30.48 "HgN/A
7:30 pm27 °FPassing clouds.6 mph36%30.45 "HgN/A
7:00 pm27 °FPassing clouds.6 mph36%30.45 "HgN/A
6:30 pm27 °FPassing clouds.3 mph36%30.45 "HgN/A
6:00 pm27 °FPassing clouds.8 mph33%30.45 "HgN/A
5:30 pm27 °FPassing clouds.8 mph33%30.45 "HgN/A
5:00 pm28 °FPassing clouds.8 mph34%30.45 "HgN/A
4:30 pm28 °FPassing clouds.10 mph37%30.45 "HgN/A
4:00 pm28 °FPassing clouds.8 mph40%30.45 "HgN/A
3:30 pm28 °FPassing clouds.10 mph40%30.42 "HgN/A
3:00 pm28 °FPassing clouds.15 mph40%30.42 "HgN/A
2:30 pm30 °FPassing clouds.13 mph40%30.42 "HgN/A
2:00 pm30 °FPassing clouds.10 mph34%30.42 "HgN/A
1:30 pm30 °FPassing clouds.15 mph34%30.45 "HgN/A
12:30 pm30 °FPassing clouds.15 mph43%30.45 "HgN/A
12:00 pm30 °FPassing clouds.15 mph47%30.48 "HgN/A
11:30 am30 °FPassing clouds.13 mph51%30.48 "HgN/A
11:00 am30 °FPassing clouds.13 mph47%30.48 "HgN/A
10:30 am30 °FPassing clouds.10 mph47%30.51 "HgN/A
9:30 am28 °FPassing clouds.15 mph47%30.51 "HgN/A
9:00 am28 °FPassing clouds.13 mph47%30.51 "HgN/A
8:30 am28 °FPassing clouds.10 mph51%30.51 "HgN/A
8:00 am27 °FPassing clouds.8 mph54%30.48 "HgN/A
7:30 am27 °FPassing clouds.8 mph54%30.48 "HgN/A
7:00 am27 °FPassing clouds.3 mph64%30.45 "HgN/A
6:30 am27 °FPassing clouds.3 mph64%30.45 "HgN/A
6:00 am27 °FPassing clouds.6 mph59%30.48 "HgN/A
5:30 am27 °FClear.8 mph64%30.45 "Hg10 mi
5:00 am27 °FPassing clouds.8 mph64%30.45 "HgN/A
Weather by CustomWeather, © 2024

See weather overview